Flag for Germany Weather past 2 weeks in Kassel, Hesse, Germany

Now
37 °F

Scattered clouds.


Feels Like: 29 °F
Forecast: 35 / 43 °F
Wind: 14 mph from West

Location: Kassel / Calden

Current Time: Mar 2, 2015 at 9:24:32 AM

Latest Report: Mar 2, 2015 at 8:50 AM


Visibility: N/A

Pressure: 29.56 "Hg

Humidity: 75%

Dew point: 30 °F

Location of KasselLocation

Historic Weather in Kassel — Graph

°F

Kassel temperature yesterday

Maximum temperature yesterday: 48 °F (at 1:50 PM)
Minimum temperature yesterday: 36 °F (at 6:20 AM)
Average temperature yesterday: 43 °F

Past Weeks' High & Low Weather Summary

 TemperatureHumidityPressure
High48 °F (Feb 20, 9:20 PM)100% (Feb 15, 8:20 AM)30.74 "Hg (Feb 15, 8:20 AM)
Low25 °F (Feb 15, 8:20 AM)49% (Feb 22, 3:20 PM)29.36 "Hg (Feb 21, 6:50 AM)
Average38 °F80%29.95 "Hg
* Reported Feb 15 8:20 AM — Mar 2 8:20 AM, Kassel, Weather by CustomWeather, © 2015

Note: Actual official high and low records may vary slightly from our data, if they occured in-between our weather recording intervals... More about our weather records

Advertising

Kassel weather history for previous 24 hours

 ConditionsComfort  
Time TempWeatherWind HumidityBarometerVisibility
8:20 AM
Mon, Mar 2
37 °FScattered clouds.14 mph75%29.53 "HgN/A
7:50 AM37 °FPassing clouds.20 mph75%29.53 "HgN/A
7:20 AM37 °FPassing clouds.12 mph75%29.53 "HgN/A
6:50 AM37 °FPassing clouds.10 mph81%29.50 "HgN/A
6:20 AM39 °FPassing clouds.12 mph75%29.50 "HgN/A
5:50 AM39 °FPassing clouds.13 mph81%29.47 "HgN/A
9:50 PM
Sun, Mar 1
45 °FOvercast.9 mph71%29.59 "HgN/A
9:20 PM45 °FClear.13 mph71%29.59 "Hg10 mi
8:20 PM43 °FClear.10 mph71%29.59 "Hg10 mi
7:50 PM45 °FPassing clouds.8 mph66%29.62 "HgN/A
7:20 PM43 °FClear.7 mph71%29.62 "Hg10 mi
6:50 PM43 °FClear.8 mph71%29.59 "Hg10 mi
6:20 PM45 °FPassing clouds.13 mph66%29.59 "HgN/A
5:50 PM45 °FMore clouds than sun.13 mph71%29.59 "HgN/A
5:20 PM46 °FPartly sunny.15 mph62%29.59 "HgN/A
4:50 PM48 °FOvercast.15 mph62%29.59 "HgN/A
4:20 PM48 °FPartly sunny.15 mph58%29.59 "HgN/A
3:50 PM48 °FPartly sunny.15 mph62%29.59 "HgN/A
3:20 PM48 °FScattered clouds.9 mph76%29.59 "HgN/A
2:50 PM46 °FLight rain. Broken clouds.12 mph76%29.59 "HgN/A
2:20 PM46 °FScattered clouds.16 mph76%29.56 "HgN/A
1:50 PM48 °FScattered clouds.14 mph71%29.59 "HgN/A
1:20 PM46 °FScattered clouds.15 mph76%29.59 "HgN/A
12:50 PM46 °FBroken clouds.17 mph76%29.59 "HgN/A
12:20 PM45 °FPassing clouds.21 mph76%29.59 "HgN/A
11:50 AM43 °FScattered clouds.21 mph81%29.59 "HgN/A
11:20 AM41 °FPartly sunny.22 mph81%29.59 "HgN/A
10:50 AM41 °FBroken clouds.17 mph81%29.59 "HgN/A
10:20 AM39 °FPartly sunny.16 mph87%29.62 "HgN/A
9:50 AM39 °FPartly sunny.17 mph81%29.59 "HgN/A
9:20 AM39 °FPartly sunny.20 mph81%29.59 "HgN/A
Weather by CustomWeather, © 2015

See weather overviewHow to use our weather pages